UTA367 UWKD-UUWW

Flight info

Callsign UTA367
Flight time 1h 14m
Altitude 34000
Route APTAR1G APTAR L158 DIMGI DIMGI3B
Aircraft B738/M-SDGIJ1LRWY/SB1

Departure

Time 2026-04-28 15:58
Airport Kazan International Airport (UWKD)

Arrival

Time 2026-04-28 17:12
Airport Vnukovo International Airport (UUWW)
Time Latitude Longitude Altitude Speed Heading
2026-04-28 15:49 55.60679 49.29663 418 ft 0 kts 34°
2026-04-28 15:53 55.60686 49.29670 418 ft 4 kts 34°
2026-04-28 15:53 55.60749 49.29643 416 ft 16 kts 310°
2026-04-28 15:53 55.60804 49.29433 411 ft 20 kts 242°
2026-04-28 15:54 55.60698 49.29287 412 ft 18 kts 213°
2026-04-28 15:54 55.60594 49.29137 407 ft 20 kts 235°
2026-04-28 15:54 55.60582 49.28895 404 ft 20 kts 274°
2026-04-28 15:54 55.60603 49.28607 401 ft 28 kts 291°
2026-04-28 15:55 55.60731 49.28267 396 ft 34 kts 304°
2026-04-28 15:55 55.60881 49.27878 390 ft 39 kts 305°
2026-04-28 15:55 55.61035 49.27475 381 ft 40 kts 305°
2026-04-28 15:55 55.61200 49.27057 372 ft 41 kts 303°
2026-04-28 15:56 55.61360 49.26630 364 ft 42 kts 308°
2026-04-28 15:56 55.61519 49.26232 357 ft 39 kts 304°
2026-04-28 15:56 55.61677 49.25827 350 ft 40 kts 304°
2026-04-28 15:56 55.61817 49.25467 343 ft 26 kts 304°
2026-04-28 15:57 55.61841 49.25285 340 ft 12 kts 228°
2026-04-28 15:57 55.61773 49.25196 339 ft 12 kts 213°
2026-04-28 15:57 55.61699 49.25143 340 ft 10 kts 175°
2026-04-28 15:57 55.61658 49.25218 342 ft 8 kts 123°
2026-04-28 15:58 55.61544 49.25506 350 ft 63 kts 127°
2026-04-28 15:58 55.61162 49.26502 365 ft 131 kts 124°
2026-04-28 15:58 55.60540 49.28102 507 ft 176 kts 129°
2026-04-28 15:58 55.59826 49.29946 1203 ft 188 kts 130°
2026-04-28 15:59 55.59161 49.31732 2187 ft 178 kts 133°
2026-04-28 15:59 55.58680 49.32967 2425 ft 189 kts 136°
2026-04-28 15:59 55.57231 49.34362 2985 ft 181 kts 190°
2026-04-28 15:59 55.56119 49.33445 3466 ft 183 kts 224°
2026-04-28 16:00 55.55407 49.31498 3922 ft 198 kts 248°
2026-04-28 16:00 55.55305 49.28954 4374 ft 222 kts 272°
2026-04-28 16:00 55.55596 49.26261 5061 ft 230 kts 275°
2026-04-28 16:00 55.55903 49.23492 5779 ft 235 kts 275°
2026-04-28 16:01 55.56189 49.20617 6521 ft 240 kts 274°
2026-04-28 16:01 55.56461 49.17767 7467 ft 244 kts 274°
2026-04-28 16:01 55.56737 49.14848 8549 ft 244 kts 273°
2026-04-28 16:01 55.57014 49.11889 9492 ft 248 kts 272°
2026-04-28 16:02 55.57294 49.08893 10404 ft 253 kts 273°
2026-04-28 16:02 55.57584 49.05829 11279 ft 258 kts 273°
2026-04-28 16:02 55.57883 49.02639 11951 ft 270 kts 273°
2026-04-28 16:02 55.58192 48.99296 12520 ft 285 kts 274°
2026-04-28 16:03 55.58523 48.95748 13084 ft 301 kts 274°
2026-04-28 16:03 55.58872 48.92032 13605 ft 316 kts 274°
2026-04-28 16:03 55.59237 48.88168 14326 ft 325 kts 274°
2026-04-28 16:03 55.59610 48.84217 15104 ft 330 kts 274°
2026-04-28 16:04 55.59986 48.80226 15833 ft 336 kts 274°
2026-04-28 16:04 55.60367 48.76148 16609 ft 340 kts 274°
2026-04-28 16:04 55.60753 48.71977 17332 ft 345 kts 275°
2026-04-28 16:04 55.61137 48.67845 18339 ft 340 kts 274°
2026-04-28 16:05 55.61513 48.63802 19346 ft 334 kts 274°
2026-04-28 16:05 55.61883 48.59801 20288 ft 329 kts 274°
2026-04-28 16:05 55.62246 48.55776 20617 ft 342 kts 274°
2026-04-28 16:05 55.62616 48.51630 21351 ft 342 kts 274°
2026-04-28 16:06 55.62986 48.47540 22292 ft 335 kts 274°
2026-04-28 16:06 55.63348 48.43557 23189 ft 327 kts 275°
2026-04-28 16:06 55.63701 48.39650 23874 ft 326 kts 275°
2026-04-28 16:06 55.64057 48.35632 24331 ft 330 kts 275°
2026-04-28 16:07 55.64415 48.31551 24568 ft 341 kts 274°
2026-04-28 16:07 55.64782 48.27338 24734 ft 353 kts 274°
2026-04-28 16:07 55.65520 48.18898 25213 ft 370 kts 274°
2026-04-28 16:08 55.65921 48.14362 25849 ft 368 kts 274°
2026-04-28 16:08 55.66312 48.09938 26467 ft 365 kts 274°
2026-04-28 16:08 55.66701 48.05505 27005 ft 362 kts 274°
2026-04-28 16:09 55.67461 47.96700 27526 ft 373 kts 274°
2026-04-28 16:09 55.67849 47.92112 27571 ft 385 kts 274°
2026-04-28 16:09 55.68247 47.87381 27620 ft 396 kts 274°
2026-04-28 16:10 55.69072 47.77642 28253 ft 402 kts 274°
2026-04-28 16:10 55.69488 47.72763 28726 ft 399 kts 274°
2026-04-28 16:10 55.70305 47.63109 29517 ft 398 kts 274°
2026-04-28 16:11 55.71109 47.53463 30279 ft 395 kts 274°
2026-04-28 16:11 55.71899 47.43857 30817 ft 396 kts 274°
2026-04-28 16:12 55.72683 47.34193 31329 ft 397 kts 274°
2026-04-28 16:12 55.73069 47.29427 31834 ft 388 kts 274°
2026-04-28 16:13 55.73804 47.20361 32791 ft 368 kts 274°
2026-04-28 16:13 55.74158 47.15956 33172 ft 362 kts 274°
2026-04-28 16:13 55.74863 47.06895 33180 ft 378 kts 274°
2026-04-28 16:14 55.75589 46.97475 33188 ft 393 kts 274°
2026-04-28 16:14 55.76334 46.87802 33375 ft 402 kts 274°
2026-04-28 16:15 55.77096 46.77902 33708 ft 406 kts 274°
2026-04-28 16:15 55.77846 46.68048 33709 ft 403 kts 274°
2026-04-28 16:16 55.78954 46.53282 33709 ft 403 kts 274°
2026-04-28 16:17 55.79849 46.38546 33703 ft 401 kts 271°
2026-04-28 16:17 55.80130 46.28621 33700 ft 402 kts 269°
2026-04-28 16:18 55.80391 46.18684 33702 ft 403 kts 270°
2026-04-28 16:18 55.80672 46.08824 33716 ft 401 kts 270°
2026-04-28 16:19 55.80963 45.98916 33712 ft 403 kts 270°
2026-04-28 16:20 55.81571 45.79119 33700 ft 403 kts 271°
2026-04-28 16:20 55.81863 45.69198 33707 ft 405 kts 271°
2026-04-28 16:21 55.82141 45.59036 33696 ft 419 kts 271°
2026-04-28 16:21 55.82414 45.48580 33675 ft 432 kts 271°
2026-04-28 16:22 55.82687 45.37877 33686 ft 437 kts 271°
2026-04-28 16:22 55.82954 45.27162 33699 ft 435 kts 270°
2026-04-28 16:23 55.83206 45.16557 33688 ft 437 kts 270°
2026-04-28 16:23 55.83452 45.05819 33698 ft 435 kts 270°
2026-04-28 16:24 55.83691 44.95016 33696 ft 438 kts 271°
2026-04-28 16:24 55.83926 44.84132 33688 ft 443 kts 271°
2026-04-28 16:25 55.84158 44.73102 33681 ft 453 kts 271°
2026-04-28 16:25 55.84380 44.61950 33683 ft 455 kts 271°
2026-04-28 16:26 55.84595 44.50747 33695 ft 454 kts 271°
2026-04-28 16:26 55.84801 44.39541 33691 ft 455 kts 271°
2026-04-28 16:27 55.84999 44.28267 33682 ft 456 kts 270°
2026-04-28 16:28 55.85272 44.11433 33681 ft 455 kts 270°
2026-04-28 16:28 55.85440 44.00289 33669 ft 455 kts 270°
2026-04-28 16:29 55.85676 43.83404 33667 ft 458 kts 270°
2026-04-28 16:30 55.85891 43.66468 33670 ft 458 kts 270°
2026-04-28 16:30 55.86021 43.55181 33676 ft 459 kts 270°
2026-04-28 16:31 55.86143 43.43846 33673 ft 459 kts 270°
2026-04-28 16:31 55.86259 43.32552 33669 ft 459 kts 270°
2026-04-28 16:32 55.86366 43.21430 33678 ft 459 kts 270°
2026-04-28 16:32 55.86506 43.04426 33688 ft 460 kts 270°
2026-04-28 16:33 55.86575 42.94996 33693 ft 460 kts 270°
2026-04-28 16:33 55.86658 42.81790 33690 ft 460 kts 270°
2026-04-28 16:34 55.86718 42.70367 33668 ft 461 kts 270°
2026-04-28 16:34 55.86768 42.59043 33683 ft 460 kts 270°
2026-04-28 16:35 55.86807 42.47657 33682 ft 461 kts 270°
2026-04-28 16:35 55.86834 42.36298 33674 ft 461 kts 270°
2026-04-28 16:36 55.86852 42.24944 33675 ft 461 kts 270°
2026-04-28 16:36 55.86859 42.13470 33669 ft 462 kts 270°
2026-04-28 16:37 55.86855 42.02105 33672 ft 461 kts 270°
2026-04-28 16:38 55.86830 41.85123 33673 ft 461 kts 270°
2026-04-28 16:38 55.86768 41.73748 33670 ft 461 kts 268°
2026-04-28 16:39 55.86470 41.62376 33685 ft 461 kts 267°
2026-04-28 16:39 55.86077 41.50970 33675 ft 462 kts 267°
2026-04-28 16:40 55.85680 41.39614 33684 ft 463 kts 267°
2026-04-28 16:40 55.85289 41.28186 33684 ft 464 kts 266°
2026-04-28 16:41 55.84909 41.16980 33693 ft 463 kts 266°
2026-04-28 16:41 55.84518 41.05573 33705 ft 463 kts 266°
2026-04-28 16:42 55.84119 40.94191 33697 ft 463 kts 266°
2026-04-28 16:42 55.83709 40.82760 33691 ft 463 kts 267°
2026-04-28 16:43 55.83289 40.71360 33692 ft 463 kts 267°
2026-04-28 16:43 55.82861 40.60035 33694 ft 463 kts 267°
2026-04-28 16:44 55.82410 40.48659 33691 ft 463 kts 266°
2026-04-28 16:44 55.81942 40.37268 33690 ft 463 kts 266°
2026-04-28 16:45 55.81465 40.25937 33196 ft 454 kts 266°
2026-04-28 16:45 55.81235 40.20571 32404 ft 451 kts 266°
2026-04-28 16:45 55.81005 40.15241 31651 ft 446 kts 266°
2026-04-28 16:45 55.80765 40.09779 30987 ft 438 kts 267°
2026-04-28 16:46 55.80533 40.04507 30391 ft 432 kts 268°
2026-04-28 16:46 55.80299 39.99245 29558 ft 428 kts 268°
2026-04-28 16:46 55.80066 39.93990 28310 ft 434 kts 268°
2026-04-28 16:46 55.79829 39.88707 27591 ft 420 kts 268°
2026-04-28 16:47 55.79599 39.83762 27497 ft 395 kts 268°
2026-04-28 16:47 55.79366 39.78997 27281 ft 375 kts 268°
2026-04-28 16:47 55.79097 39.74509 27071 ft 360 kts 267°
2026-04-28 16:47 55.78808 39.70156 26882 ft 361 kts 267°
2026-04-28 16:48 55.78504 39.65682 26729 ft 361 kts 267°
2026-04-28 16:48 55.78203 39.61303 26714 ft 360 kts 267°
2026-04-28 16:48 55.77900 39.56871 26713 ft 361 kts 268°
2026-04-28 16:48 55.77597 39.52460 26706 ft 362 kts 268°
2026-04-28 16:49 55.77293 39.48018 26717 ft 366 kts 268°
2026-04-28 16:49 55.76985 39.43506 26714 ft 376 kts 267°
2026-04-28 16:49 55.76662 39.38807 26712 ft 387 kts 267°
2026-04-28 16:49 55.76330 39.34018 26715 ft 396 kts 266°
2026-04-28 16:50 55.75988 39.29111 26720 ft 407 kts 266°
2026-04-28 16:50 55.75639 39.24109 26723 ft 417 kts 266°
2026-04-28 16:50 55.75326 39.19656 26524 ft 422 kts 266°
2026-04-28 16:50 55.74961 39.14484 26274 ft 419 kts 266°
2026-04-28 16:51 55.74608 39.09562 26030 ft 416 kts 266°
2026-04-28 16:51 55.74240 39.04392 25784 ft 425 kts 267°
2026-04-28 16:51 55.73869 38.99141 25731 ft 436 kts 267°
2026-04-28 16:51 55.73560 38.94835 25735 ft 444 kts 267°
2026-04-28 16:52 55.73447 38.93267 25735 ft 446 kts 265°
2026-04-28 16:52 55.73047 38.87838 25702 ft 445 kts 265°
2026-04-28 16:52 55.72631 38.82436 25666 ft 444 kts 265°
2026-04-28 16:52 55.72213 38.77088 25386 ft 434 kts 265°
2026-04-28 16:53 55.71795 38.71843 24971 ft 425 kts 265°
2026-04-28 16:53 55.71386 38.66750 24455 ft 418 kts 266°
2026-04-28 16:53 55.70988 38.61714 23928 ft 412 kts 266°
2026-04-28 16:53 55.70599 38.56702 23403 ft 405 kts 267°
2026-04-28 16:54 55.70225 38.51865 22902 ft 399 kts 268°
2026-04-28 16:54 55.69850 38.46994 22388 ft 393 kts 268°
2026-04-28 16:54 55.69487 38.42280 21885 ft 387 kts 268°
2026-04-28 16:54 55.69247 38.39161 21544 ft 384 kts 268°
2026-04-28 16:55 55.68768 38.32996 20883 ft 379 kts 267°
2026-04-28 16:55 55.68410 38.28369 20394 ft 378 kts 267°
2026-04-28 16:55 55.68068 38.23915 19910 ft 376 kts 267°
2026-04-28 16:55 55.67744 38.19709 19767 ft 370 kts 267°
2026-04-28 16:56 55.67388 38.15204 19758 ft 371 kts 267°
2026-04-28 16:56 55.67028 38.10782 19346 ft 353 kts 267°
2026-04-28 16:56 55.66680 38.06615 19090 ft 333 kts 268°
2026-04-28 16:56 55.66352 38.02683 18838 ft 322 kts 268°
2026-04-28 16:57 55.66041 37.98746 18774 ft 324 kts 268°
2026-04-28 16:57 55.65733 37.94820 18756 ft 320 kts 268°
2026-04-28 16:57 55.65414 37.90978 18213 ft 314 kts 266°
2026-04-28 16:57 55.64892 37.87215 17329 ft 321 kts 257°
2026-04-28 16:58 55.64037 37.83597 16547 ft 324 kts 250°
2026-04-28 16:58 55.62975 37.80058 15805 ft 323 kts 246°
2026-04-28 16:58 55.61866 37.76665 15078 ft 319 kts 245°
2026-04-28 16:58 55.60751 37.73357 14533 ft 311 kts 245°
2026-04-28 16:59 55.59676 37.70157 14048 ft 301 kts 245°
2026-04-28 16:59 55.58640 37.67026 13577 ft 292 kts 248°
2026-04-28 16:59 55.58011 37.63817 13274 ft 267 kts 265°
2026-04-28 16:59 55.57530 37.60704 12887 ft 265 kts 248°
2026-04-28 17:00 55.56308 37.58344 12707 ft 264 kts 218°
2026-04-28 17:00 55.54641 37.57104 12476 ft 255 kts 204°
2026-04-28 17:00 55.52960 37.56423 11943 ft 250 kts 197°
2026-04-28 17:00 55.51228 37.56063 11102 ft 257 kts 192°
2026-04-28 17:01 55.49303 37.55731 10723 ft 292 kts 192°
2026-04-28 17:01 55.47318 37.55340 10753 ft 281 kts 193°
2026-04-28 17:01 55.45425 37.54959 10855 ft 263 kts 193°
2026-04-28 17:01 55.43646 37.54590 11146 ft 258 kts 195°
2026-04-28 17:02 55.41849 37.54136 11451 ft 270 kts 195°
2026-04-28 17:02 55.40573 37.53836 11654 ft 280 kts 193°
2026-04-28 17:02 55.37959 37.53262 12275 ft 288 kts 193°
2026-04-28 17:02 55.36064 37.52520 12435 ft 271 kts 212°
2026-04-28 17:03 55.34008 37.47787 11452 ft 241 kts 264°
2026-04-28 17:03 55.33860 37.44930 10933 ft 232 kts 282°
2026-04-28 17:03 55.34279 37.42294 10424 ft 226 kts 299°
2026-04-28 17:04 55.36254 37.38248 9529 ft 217 kts 328°
2026-04-28 17:04 55.37653 37.37388 9043 ft 220 kts 351°
2026-04-28 17:05 55.40525 37.38358 8064 ft 231 kts 21°
2026-04-28 17:05 55.41611 37.39814 7596 ft 242 kts 40°
2026-04-28 17:05 55.42866 37.42571 7004 ft 237 kts 38°
2026-04-28 17:06 55.45640 37.44057 5953 ft 207 kts 353°
2026-04-28 17:06 55.47100 37.44241 5325 ft 216 kts
2026-04-28 17:06 55.49992 37.45766 4092 ft 221 kts 10°
2026-04-28 17:07 55.51431 37.46495 3933 ft 205 kts
2026-04-28 17:07 55.52799 37.47113 3967 ft 209 kts
2026-04-28 17:07 55.54218 37.47766 3981 ft 211 kts
2026-04-28 17:07 55.55636 37.48456 3794 ft 214 kts
2026-04-28 17:08 55.57014 37.49160 3712 ft 196 kts
2026-04-28 17:08 55.58250 37.49785 3673 ft 176 kts
2026-04-28 17:08 55.59393 37.50116 3435 ft 160 kts 347°
2026-04-28 17:08 55.60410 37.49540 2989 ft 154 kts 327°
2026-04-28 17:09 55.61396 37.48692 2441 ft 167 kts 332°
2026-04-28 17:09 55.62477 37.47917 2125 ft 168 kts 328°
2026-04-28 17:09 55.63297 37.46578 2145 ft 159 kts 292°
2026-04-28 17:09 55.63335 37.44659 2171 ft 163 kts 258°
2026-04-28 17:10 55.62879 37.42786 2155 ft 164 kts 252°
2026-04-28 17:10 55.62452 37.40955 2183 ft 156 kts 256°
2026-04-28 17:10 55.62090 37.39238 2021 ft 143 kts 255°
2026-04-28 17:10 55.61741 37.37669 1816 ft 130 kts 255°
2026-04-28 17:11 55.61408 37.36189 1630 ft 130 kts 253°
2026-04-28 17:11 55.61068 37.34687 1427 ft 132 kts 253°
2026-04-28 17:11 55.60726 37.33190 1321 ft 134 kts 251°
2026-04-28 17:11 55.60390 37.31665 1060 ft 133 kts 250°
2026-04-28 17:12 55.60079 37.30264 906 ft 135 kts 252°
2026-04-28 17:12 55.59747 37.28788 713 ft 132 kts 251°
2026-04-28 17:12 55.59464 37.27529 698 ft 77 kts 249°
2026-04-28 17:12 55.59330 37.26924 698 ft 39 kts 250°
2026-04-28 17:13 55.59213 37.26398 698 ft 51 kts 249°
2026-04-28 17:13 55.59088 37.25839 698 ft 46 kts 251°
2026-04-28 17:13 55.59021 37.25310 698 ft 38 kts 272°
2026-04-28 17:13 55.59047 37.25071 698 ft 12 kts 314°
2026-04-28 17:14 55.59073 37.25044 698 ft 0 kts 338°
2026-04-28 17:15 55.59079 37.25039 698 ft 2 kts 336°
2026-04-28 17:16 55.59136 37.25048 698 ft 15 kts 45°
2026-04-28 17:16 55.59188 37.25252 698 ft 18 kts 68°
2026-04-28 17:16 55.59234 37.25459 698 ft 17 kts 68°
2026-04-28 17:16 55.59278 37.25663 698 ft 17 kts 69°
2026-04-28 17:17 55.59322 37.25861 698 ft 17 kts 68°
2026-04-28 17:17 55.59367 37.26053 698 ft 16 kts 66°
2026-04-28 17:17 55.59408 37.26243 698 ft 16 kts 68°
2026-04-28 17:17 55.59449 37.26424 698 ft 15 kts 68°
2026-04-28 17:18 55.59491 37.26603 698 ft 15 kts 67°
2026-04-28 17:18 55.59531 37.26774 698 ft 14 kts 61°
2026-04-28 17:18 55.59589 37.26913 698 ft 13 kts 41°
2026-04-28 17:18 55.59652 37.27033 698 ft 12 kts 46°
2026-04-28 17:19 55.59712 37.27145 698 ft 12 kts 46°
2026-04-28 17:19 55.59769 37.27249 698 ft 11 kts 45°
2026-04-28 17:19 55.59823 37.27348 698 ft 10 kts 45°
2026-04-28 17:19 55.59874 37.27438 698 ft 10 kts 45°
2026-04-28 17:20 55.59919 37.27525 698 ft 9 kts 47°
2026-04-28 17:20 55.59947 37.27583 698 ft 8 kts 60°
2026-04-28 17:20 55.59993 37.27695 698 ft 8 kts 50°
2026-04-28 17:20 55.60002 37.27781 698 ft 7 kts 121°
2026-04-28 17:21 55.59991 37.27867 698 ft 7 kts 66°
2026-04-28 17:21 55.60027 37.27911 698 ft 2 kts 24°
2026-04-28 17:21 55.60030 37.27913 698 ft 0 kts 24°